Dennison, MN

3:48 PM CST on December 05, 2016 (GMT -0600)
Stanton

Weather History for KSYN - October, 2012

Change the Weather History Date:

Monday, October 29, 2012

  Actual Average (KLVN) Record (KLVN)
Temperature  
Mean Temperature 36 °F -  
Max Temperature 47 °F 53 °F 79 °F (1950)
Min Temperature 25 °F 33 °F 16 °F (1988)
Degree Days  
Heating Degree Days 29    
Moisture  
Dew Point 25 °F    
Average Humidity 63    
Maximum Humidity 83    
Minimum Humidity 43    
Precipitation  
Precipitation 0.00 in - - ()
Sea Level Pressure  
Sea Level Pressure 30.28 in    
Wind  
Wind Speed 3 mph (SE)    
Max Wind Speed 12 mph    
Max Gust Speed -    
Visibility 10 miles    
Events      
Averages and records for this station are not official NWS values.
T = Trace of Precipitation, MM = Missing Value Source: NWS Daily Summary

Daily Weather History Graph

Daily Weather History Graph

Search for Another Location

Airport or City:

Trip Planner

Search our weather history database for the weather conditions in past years. The results will help you decide how hot, cold, wet, or windy it might be!

Date:

Astronomy

Oct. 29, 2012 Rise Set
Actual Time 7:46 AM CDT 6:04 PM CDT
Civil Twilight 7:15 AM CDT 6:34 PM CDT
Nautical Twilight 6:41 AM CDT 7:09 PM CDT
Astronomical Twilight 6:07 AM CDT 7:42 PM CDT
Moon 5:55 PM CDT (10/29) 7:38 AM CDT (10/29)
Length of Visible Light 11h 18m
Length of Day
10h 18m
Full, 100% of the Moon is Illuminated
Oct 29
Full
Oct 29
Full
Nov 6
Last Quarter
Nov 13
New
Nov 20
First Quarter

Hourly Weather History & Observations

Time (CDT) Temp. Windchill Dew Point Humidity Pressure Visibility Wind Dir Wind Speed Gust Speed Precip Events Conditions
12:12 AM 28.9 °F 23.9 °F 22.8 °F 78% 30.30 in 10.0 mi SSW 4.6 mph - N/A   Clear
12:32 AM 28.6 °F - 22.3 °F 77% 30.30 in 10.0 mi Calm Calm - N/A   Clear
12:52 AM 29.8 °F - 23.7 °F 78% 30.30 in 10.0 mi Calm Calm - N/A   Clear
1:12 AM 29.8 °F - 23.4 °F 77% 30.30 in 10.0 mi Calm Calm - N/A   Clear
1:32 AM 28.9 °F - 22.8 °F 78% 30.30 in 10.0 mi Calm Calm - N/A   Clear
1:52 AM 30.4 °F - 22.1 °F 71% 30.29 in 10.0 mi Calm Calm - N/A   Clear
2:12 AM 30.9 °F 26.2 °F 22.3 °F 70% 30.30 in 10.0 mi SSW 4.6 mph - N/A   Clear
2:32 AM 31.1 °F - 21.7 °F 68% 30.30 in 10.0 mi Calm Calm - N/A   Clear
2:52 AM 30.4 °F - 21.7 °F 70% 30.30 in 10.0 mi Calm Calm - N/A   Clear
3:12 AM 26.4 °F 22.4 °F 20.5 °F 78% 30.30 in 10.0 mi SW 3.5 mph - N/A   Clear
3:32 AM 28.6 °F - 22.1 °F 77% 30.30 in 10.0 mi Calm Calm - N/A   Clear
3:52 AM 28.0 °F - 22.1 °F 78% 30.30 in 10.0 mi Calm Calm - N/A   Clear
4:12 AM 27.3 °F - 21.7 °F 80% 30.30 in 10.0 mi Calm Calm - N/A   Clear
4:32 AM 27.0 °F - 21.9 °F 81% 30.30 in 10.0 mi Calm Calm - N/A   Clear
4:52 AM 28.0 °F - 21.9 °F 78% 30.31 in 10.0 mi Calm Calm - N/A   Clear
5:12 AM 27.5 °F - 21.7 °F 79% 30.30 in 10.0 mi Calm Calm - N/A   Clear
5:52 AM 26.4 °F - 21.7 °F 82% 30.30 in 10.0 mi Calm Calm - N/A   Clear
6:12 AM 26.2 °F - 20.8 °F 80% 30.30 in 10.0 mi Calm Calm - N/A   Clear
6:32 AM 25.2 °F - 20.7 °F 83% 30.30 in 10.0 mi Calm Calm - N/A   Clear
6:52 AM 29.3 °F - 20.7 °F 70% 30.30 in 10.0 mi Calm Calm - N/A   Clear
7:12 AM 28.0 °F - 20.5 °F 73% 30.30 in 10.0 mi Calm Calm - N/A   Clear
7:32 AM 27.9 °F - 21.7 °F 78% 30.31 in 10.0 mi Calm Calm - N/A   Clear
7:52 AM 28.8 °F 25.0 °F 23.4 °F 80% 30.30 in 10.0 mi SE 3.5 mph - N/A   Clear
8:12 AM 32.2 °F - 22.5 °F 67% 30.30 in 10.0 mi Calm Calm - N/A   Clear
8:32 AM 34.2 °F 30.0 °F 23.0 °F 64% 30.31 in 10.0 mi SSE 4.6 mph - N/A   Clear
8:52 AM 34.2 °F 31.2 °F 23.5 °F 65% 30.31 in 10.0 mi SSE 3.5 mph - N/A   Scattered Clouds
9:12 AM 35.1 °F - 23.9 °F 64% 30.32 in 10.0 mi Calm Calm - N/A   Overcast
9:32 AM 34.7 °F - 25.5 °F 69% 30.32 in 10.0 mi Calm Calm - N/A   Overcast
9:52 AM 35.8 °F - 26.4 °F 69% 30.32 in 10.0 mi Calm Calm - N/A   Overcast
10:12 AM 38.5 °F 36.1 °F 25.2 °F 59% 30.32 in 10.0 mi SE 3.5 mph - N/A   Overcast
10:32 AM 39.6 °F 35.4 °F 26.4 °F 59% 30.31 in 10.0 mi South 5.8 mph - N/A   Overcast
10:52 AM 40.5 °F 33.6 °F 26.1 °F 57% 30.30 in 10.0 mi South 11.5 mph - N/A   Overcast
11:12 AM 41.7 °F 36.7 °F 26.4 °F 55% 30.31 in 10.0 mi SSE 8.1 mph - N/A   Overcast
11:32 AM 42.8 °F 37.5 °F 25.9 °F 51% 30.31 in 10.0 mi SSE 9.2 mph - N/A   Overcast
11:52 AM 43.9 °F 39.3 °F 26.4 °F 50% 30.30 in 10.0 mi SSE 8.1 mph - N/A   Overcast
12:52 PM 44.8 °F 41.0 °F 27.3 °F 50% 30.30 in 10.0 mi South 6.9 mph - N/A   Overcast
1:12 PM 45.0 °F 40.6 °F 27.3 °F 50% 30.29 in 10.0 mi SSE 8.1 mph - N/A   Overcast
1:32 PM 45.5 °F 42.5 °F 27.5 °F 49% 30.29 in 10.0 mi SSE 5.8 mph - N/A   Overcast
1:52 PM 45.5 °F 40.8 °F 27.5 °F 49% 30.28 in 10.0 mi South 9.2 mph - N/A   Overcast
2:12 PM 45.9 °F 42.3 °F 28.0 °F 50% 30.28 in 10.0 mi SSE 6.9 mph - N/A   Overcast
2:32 PM 46.4 °F 42.9 °F 27.9 °F 48% 30.27 in 10.0 mi SSE 6.9 mph - N/A   Overcast
3:12 PM 47.5 °F - 29.5 °F 50% 30.27 in 10.0 mi South 3.5 mph - N/A   Overcast
3:32 PM 47.1 °F - 28.2 °F 48% 30.27 in 10.0 mi Calm Calm - N/A   Overcast
3:52 PM 47.7 °F - 27.5 °F 46% 30.26 in 10.0 mi SE 6.9 mph - N/A   Overcast
4:13 PM 47.3 °F - 25.9 °F 43% 30.26 in 10.0 mi ESE 5.8 mph - N/A   Overcast
4:32 PM 47.3 °F - 25.5 °F 43% 30.25 in 10.0 mi SE 6.9 mph - N/A   Overcast
4:52 PM 47.3 °F - 25.5 °F 43% 30.25 in 10.0 mi SE 5.8 mph - N/A   Overcast
5:13 PM 46.9 °F - 25.5 °F 43% 30.25 in 10.0 mi ESE 4.6 mph - N/A   Overcast
5:32 PM 46.4 °F 42.9 °F 25.9 °F 45% 30.25 in 10.0 mi East 6.9 mph - N/A   Overcast
5:52 PM 44.4 °F 41.2 °F 28.4 °F 53% 30.25 in 10.0 mi East 5.8 mph - N/A   Overcast
6:13 PM 42.8 °F 39.3 °F 27.5 °F 55% 30.25 in 10.0 mi East 5.8 mph - N/A   Mostly Cloudy
6:32 PM 41.9 °F 38.2 °F 27.0 °F 55% 30.24 in 10.0 mi East 5.8 mph - N/A   Scattered Clouds
6:52 PM 38.8 °F 34.6 °F 27.5 °F 64% 30.25 in 10.0 mi East 5.8 mph - N/A   Scattered Clouds
7:13 PM 39.9 °F 35.8 °F 26.8 °F 59% 30.25 in 10.0 mi East 5.8 mph - N/A   Scattered Clouds
7:32 PM 40.6 °F 36.7 °F 27.0 °F 58% 30.25 in 10.0 mi East 5.8 mph - N/A   Mostly Cloudy
7:52 PM 41.5 °F 37.8 °F 27.1 °F 57% 30.25 in 10.0 mi East 5.8 mph - N/A   Overcast
8:12 PM 41.0 °F 36.4 °F 27.5 °F 59% 30.25 in 10.0 mi East 6.9 mph - N/A   Overcast
8:32 PM 41.0 °F 37.1 °F 27.0 °F 57% 30.25 in 10.0 mi East 5.8 mph - N/A   Overcast
8:52 PM 40.5 °F 35.8 °F 27.5 °F 60% 30.25 in 10.0 mi East 6.9 mph - N/A   Overcast
9:12 PM 40.3 °F 37.1 °F 27.0 °F 59% 30.24 in 10.0 mi East 4.6 mph - N/A   Overcast
9:32 PM 40.1 °F 36.1 °F 26.4 °F 58% 30.23 in 10.0 mi East 5.8 mph - N/A   Overcast
9:52 PM 39.9 °F 36.7 °F 26.2 °F 58% 30.23 in 10.0 mi East 4.6 mph - N/A   Overcast
10:12 PM 39.9 °F 36.7 °F 25.7 °F 57% 30.23 in 10.0 mi East 4.6 mph - N/A   Overcast
10:32 PM 38.1 °F - 25.5 °F 61% 30.22 in 10.0 mi Calm Calm - N/A   Mostly Cloudy
10:52 PM 37.2 °F - 26.2 °F 65% 30.23 in 10.0 mi Calm Calm - N/A   Mostly Cloudy
11:12 PM 36.0 °F - 26.4 °F 68% 30.23 in 10.0 mi Calm Calm - N/A   Overcast
11:33 PM 34.3 °F - 27.3 °F 76% 30.23 in 10.0 mi Calm Calm - N/A   Mostly Cloudy
11:52 PM 33.4 °F - 26.6 °F 76% 30.22 in 10.0 mi Calm Calm - N/A   Scattered Clouds